TimePDT,TemperatureF,Dew PointF,Humidity,Sea Level PressureIn,VisibilityMPH,Wind Direction,Wind SpeedMPH,Gust SpeedMPH,PrecipitationIn,Events,Conditions,WindDirDegrees,DateUTC
12:10 AM,50.0,41.0,71,30.10,10.0,Calm,Calm,-,N/A,,Clear,0,2013-03-18 07:10:00
12:30 AM,50.0,41.0,71,30.10,10.0,Calm,Calm,-,N/A,,Clear,0,2013-03-18 07:30:00
12:55 AM,50.0,41.0,71,30.10,10.0,SW,5.8,-,N/A,,Clear,220,2013-03-18 07:55:00
1:10 AM,50.0,41.0,71,30.09,10.0,Calm,Calm,-,N/A,,Clear,0,2013-03-18 08:10:00
1:30 AM,48.2,41.0,76,30.10,10.0,Calm,Calm,-,N/A,,Clear,0,2013-03-18 08:30:00
1:50 AM,48.2,41.0,76,30.11,10.0,NW,3.5,-,N/A,,Clear,320,2013-03-18 08:50:00
2:10 AM,48.2,41.0,76,30.10,10.0,Calm,Calm,-,N/A,,Clear,0,2013-03-18 09:10:00
2:30 AM,48.2,41.0,76,30.10,10.0,Calm,Calm,-,N/A,,Clear,0,2013-03-18 09:30:00
2:50 AM,48.2,41.0,76,30.10,10.0,Calm,Calm,-,N/A,,Clear,0,2013-03-18 09:50:00
3:10 AM,46.4,41.0,81,30.09,10.0,Calm,Calm,-,N/A,,Clear,0,2013-03-18 10:10:00
3:30 AM,46.4,41.0,81,30.08,10.0,Calm,Calm,-,N/A,,Clear,0,2013-03-18 10:30:00
3:50 AM,46.4,41.0,81,30.08,10.0,Calm,Calm,-,N/A,,Clear,0,2013-03-18 10:50:00
4:10 AM,46.4,41.0,81,30.07,10.0,Calm,Calm,-,N/A,,Clear,0,2013-03-18 11:10:00
4:30 AM,46.4,41.0,81,30.07,10.0,Calm,Calm,-,N/A,,Clear,0,2013-03-18 11:30:00
4:50 AM,46.4,41.0,81,30.07,10.0,Calm,Calm,-,N/A,,Clear,0,2013-03-18 11:50:00
5:15 AM,46.4,41.0,81,30.07,10.0,Calm,Calm,-,N/A,,Clear,0,2013-03-18 12:15:00
5:30 AM,46.4,41.0,81,30.08,10.0,WNW,3.5,-,N/A,,Clear,300,2013-03-18 12:30:00
5:50 AM,46.4,41.0,81,30.08,10.0,North,3.5,-,N/A,,Clear,350,2013-03-18 12:50:00
6:10 AM,46.4,41.0,81,30.08,10.0,WSW,3.5,-,N/A,,Clear,250,2013-03-18 13:10:00
6:30 AM,46.4,41.0,81,30.09,10.0,SSW,3.5,-,N/A,,Clear,210,2013-03-18 13:30:00
6:50 AM,46.4,41.0,81,30.09,10.0,Calm,Calm,-,N/A,,Clear,0,2013-03-18 13:50:00
7:49 AM,46.4,41.0,81,30.11,10.0,Calm,Calm,-,N/A,,Partly Cloudy,0,2013-03-18 14:49:00
8:47 AM,50.0,44.6,82,30.12,8.0,SE,3.5,-,N/A,,Scattered Clouds,130,2013-03-18 15:47:00
9:50 AM,51.8,46.4,82,30.13,7.0,ENE,3.5,-,N/A,,Mostly Cloudy,70,2013-03-18 16:50:00
10:47 AM,53.6,46.4,77,30.13,7.0,Calm,Calm,-,N/A,,Mostly Cloudy,0,2013-03-18 17:47:00
11:47 AM,57.2,48.2,72,30.12,7.0,ENE,4.6,-,N/A,,Mostly Cloudy,60,2013-03-18 18:47:00
12:49 PM,57.2,48.2,72,30.11,7.0,North,5.8,-,N/A,,Mostly Cloudy,10,2013-03-18 19:49:00
1:47 PM,59.0,48.2,67,30.09,7.0,NE,6.9,-,N/A,,Mostly Cloudy,40,2013-03-18 20:47:00
2:47 PM,59.0,46.4,63,30.07,7.0,North,6.9,-,N/A,,Overcast,360,2013-03-18 21:47:00
3:55 PM,64.4,46.4,52,30.06,7.0,North,4.6,-,N/A,,Mostly Cloudy,10,2013-03-18 22:55:00
4:50 PM,62.6,46.4,55,30.06,7.0,NNE,4.6,-,N/A,,Mostly Cloudy,30,2013-03-18 23:50:00
5:47 PM,62.6,44.6,52,30.06,7.0,NNW,5.8,-,N/A,,Mostly Cloudy,340,2013-03-19 00:47:00
6:47 PM,59.0,46.4,63,30.06,7.0,NW,5.8,-,N/A,,Mostly Cloudy,320,2013-03-19 01:47:00
7:55 PM,53.6,44.6,72,30.11,10.0,SW,9.2,19.6,N/A,,Partly Cloudy,230,2013-03-19 02:55:00
9:10 PM,53.6,42.8,67,30.11,10.0,West,11.5,19.6,N/A,,Overcast,280,2013-03-19 04:10:00
9:30 PM,53.6,44.6,72,30.13,10.0,West,8.1,-,N/A,,Overcast,270,2013-03-19 04:30:00
9:50 PM,53.6,42.8,67,30.13,10.0,West,4.6,-,N/A,,Overcast,280,2013-03-19 04:50:00
10:10 PM,53.6,42.8,67,30.14,10.0,West,4.6,-,N/A,,Overcast,270,2013-03-19 05:10:00
10:35 PM,53.6,42.8,67,30.14,10.0,WSW,3.5,-,N/A,,Overcast,250,2013-03-19 05:35:00
10:50 PM,53.6,41.0,62,30.15,10.0,West,6.9,-,N/A,,Overcast,270,2013-03-19 05:50:00
11:10 PM,53.6,42.8,67,30.15,10.0,West,6.9,-,N/A,,Overcast,260,2013-03-19 06:10:00
11:30 PM,51.8,44.6,76,30.14,10.0,SW,3.5,-,N/A,,Mostly Cloudy,220,2013-03-19 06:30:00
11:50 PM,53.6,41.0,62,30.13,10.0,SSE,3.5,-,N/A,,Partly Cloudy,150,2013-03-19 06:50:00